Regional Weather Roundup
Issued by NWS

Home | Current Version | Previous Version | Text Only | Print | Product List | Glossary On
Versions: 1 2 3 4 5 6 7 8 9 10 11 12 13 14 15 16 17 18 19 20 21 22 23 24 25 26 27 28 29 30 31 32 33 34 35 36 37 38 39 40 41 42 43 44 45 46 47 48 49 50
000
ASMX46 KSGX 232304
RWRMX

MEXICAN WEATHER ROUNDUP
NATIONAL WEATHER SERVICE SAN DIEGO CA
400 PM PDT TUE MAY 23 2017

BAJA CALIFORNIA

CITY           SKY/WX    TMP DP  RH WIND       PRES   REMARKS
ENSENADA NW      N/A     67  32  27 W17       29.90F
LA PAZ         SUNNY     97  19   6 N7        29.79F
LORETO         SUNNY     97  66  36 CALM      29.75F HX 100
MEXICALI       SUNNY    108  21   5 E3        29.74F HX  99
S.J. DEL CABO  SUNNY     86  45  23 SE20      29.81F
TIJUANA        SUNNY     73  54  49 W10       29.95F

NORTHWESTERN MEXICO

CITY           SKY/WX    TMP DP  RH WIND       PRES   REMARKS
CHIHUAHUA      SUNNY     93  32  11 N15       29.95F
CULIACAN       SUNNY     93  63  36 S12       29.78F
GUAYMAS        SUNNY     90  70  51 SW14      29.70F HX  95
HERMOSILLO     SUNNY    108  32   7 SW10      29.77F HX 100
JUAREZ         SUNNY     86  45  23 E12       29.86F
LOS MOCHIS     SUNNY     88  46  23 W13       29.80F
OBREGON        SUNNY     99  36  11 W10       29.72F

NORTHEASTERN MEXICO

CITY           SKY/WX    TMP DP  RH WIND       PRES   REMARKS
MATAMOROS      MOSUNNY   82  73  74 CALM      29.72F
MONCLOVA         N/A    N/A N/A N/A MISG        N/A
MONTERREY      PTSUNNY   86  68  54 E9        29.78S
NUEVO LAREDO   PTSUNNY   86  70  58 NE7       29.78F
PIEDRAS NEGRAS PTSUNNY   79  66  65 NW7       29.86
REYNOSA        CLOUDY    82  70  65 E12       29.74F
SALTILLO       SUNNY     82  57  42 S17       29.98S
TORREON        MOSUNNY   97  48  19 N9        29.85F
VICTORIA       PTSUNNY   97  64  34 N6        29.69F HX  99

WESTERN MEXICO

CITY           SKY/WX    TMP DP  RH WIND       PRES   REMARKS
AGUASCALIENTES MOSUNNY   91  -4   2 W10       30.05F
COLIMA         MOSUNNY   86  70  58 SW17      29.90R
DURANGO        PTSUNNY   90  27  10 NW6       30.01F
GUADALAJARA    PTSUNNY   91  27   9 W15       30.00F
MANZANILLO     MOSUNNY   81  72  74 W14       29.74F
MAZATLAN       PTSUNNY   84  66  54 W13       29.88R
PTO. VALLARTA  MOSUNNY   81  75  83 SW9       29.79F
TEPIC          MOSUNNY   84  68  58 N8        29.96S
URUAPAN        CLOUDY    81  61  50 CALM      30.04F
ZACATECAS      PTSUNNY   90  28  11 NW7       30.08F

CENTRAL MEXICO

CITY           SKY/WX    TMP DP  RH WIND       PRES   REMARKS
CUERNAVACA     PTSUNNY   93  59  31 CALM      29.88F
LEON           MOSUNNY   91  23   8 W12       30.07F
MEXICO CITY    MOSUNNY   86  30  13 NE8       30.12F
MORELIA        MOSUNNY   91  50  24 SW6       30.03S
POZA RICA      SUNNY     95  79  59 E7        29.72S HX 112
PUEBLA         PTSUNNY   79  54  41 SW15      30.13F
QUERETARO      PTSUNNY   90  28  11 W7        30.10F
S. LUIS POTOSI MOSUNNY   91  16   6 E8        29.99F
TAMPICO        MOSUNNY   86  79  79 S12       29.68F HX  99
TOLUCA         PTSUNNY   73  37  27 SW3       30.22F
VERACRUZ       CLOUDY    91  77  62 E12       29.63S HX 105

SOUTHERN MEXICO

CITY           SKY/WX    TMP DP  RH WIND       PRES   REMARKS
ACAPULCO       PTSUNNY   88  77  70 S6        29.75S HX 100
B. DE HUATULCO PTSUNNY  N/A N/A N/A E12       29.84F
MINATITLAN     MOSUNNY   97  73  46 S17       29.63F HX 107
OAXACA         TSTM      86  55  35 S14       29.99R
PTO. ESCONDIDO PTSUNNY   84  77  79 SE17      29.86F
TAPACHULA      CLOUDY    84  77  79 S2        29.77
TUX. GUTIERREZ PTSUNNY   91  66  43 S7        29.74F
VILLAHERMOSA   MOSUNNY   95  75  52 N9        29.67F HX 107
ZIHUATANEJO    MOSUNNY   88  77  70 SW12      29.75F HX 100

YUCATAN PENINSULA

CITY           SKY/WX    TMP DP  RH WIND       PRES   REMARKS
CAMPECHE       MOSUNNY   93  81  66 N12G23    29.66F HX 113
CANCUN         MOSUNNY   86  75  70 SE17      29.82F HX  95
CHETUMAL       MOSUNNY   88  77  70 E17       29.78S HX 100
C. DEL CARMEN  PTSUNNY   91  75  59 N12       29.67F HX 102
COZUMEL        MOSUNNY   86  75  70 SE16      29.81S HX  95
MERIDA         PTSUNNY   97  70  41 N12       29.71R HX 103

$$




USA.gov is the U.S. government's official web portal to all federal, state and local government web resources and services.